Location: ?????? ??????
(44.3742°N, 135.2221°E)
Time: 21:40:48
(UTC+00:00)

ATLAS 3B R/B - Visible Passes

Search period start: 17 April 2026 00:00
Search period end: 27 April 2026 00:00
Orbit: 936 x 1257 km, 63.8° (Epoch: 17 April)

Date Brightness Start Highest point End Pass type
(mag) Time Alt. Az. Time Alt. Az. Time Alt. Az.
17 Apr 4.8 10:16:56 10° W 10:23:43 32° NNW 10:30:39 10° NNE visible
17 Apr 5.3 12:12:04 10° NW 12:17:13 18° N 12:22:21 10° NE visible
17 Apr 4.9 14:05:02 10° NNW 14:11:07 23° NNE 14:17:01 10° ENE visible
17 Apr 3.3 15:55:53 10° NNW 16:03:37 59° NE 16:06:55 34° ESE visible
17 Apr 3.3 17:47:13 10° NW 17:54:01 36° WSW 17:54:01 36° WSW visible
18 Apr 5.3 11:23:11 10° WNW 11:28:42 20° NNW 11:34:14 10° NNE visible
18 Apr 5.1 13:17:11 10° NNW 13:22:41 20° NNE 13:28:06 10° ENE visible
18 Apr 3.9 15:08:22 10° NNW 15:15:45 42° NE 15:19:35 25° E visible
18 Apr 2.9 16:59:17 10° NW 17:06:43 57° WSW 17:06:43 57° WSW visible
19 Apr 5.2 10:34:13 10° WNW 10:40:17 24° NNW 10:46:24 10° NNE visible
19 Apr 5.2 12:29:02 10° NW 12:34:10 18° N 12:39:15 10° NE visible
19 Apr 4.4 14:20:49 10° NNW 14:27:41 32° NNE 14:32:34 17° E visible
19 Apr 2.7 16:11:35 10° NW 16:19:24 86° SW 16:19:44 82° S visible
19 Apr 4.4 18:04:04 10° WNW 18:06:53 17° W 18:06:53 17° W visible
20 Apr 5.2 11:40:31 10° NW 11:45:37 18° N 11:50:40 10° NE visible
20 Apr 4.7 13:33:11 10° NNW 13:39:27 25° NNE 13:45:30 10° ENE visible
20 Apr 3.1 15:24:00 10° NNW 15:31:47 66° NE 15:32:56 59° E visible
20 Apr 3.9 17:15:30 10° NW 17:20:07 28° W 17:20:07 28° W visible
21 Apr 5.2 10:51:41 10° NW 10:57:05 19° NNW 11:02:28 10° NNE visible
21 Apr 5.0 12:45:24 10° NNW 12:51:03 21° NNE 12:56:35 10° ENE visible
21 Apr 3.7 14:36:27 10° NNW 14:43:57 46° NE 14:46:17 37° E visible
21 Apr 3.3 16:27:28 10° NW 16:33:28 45° W 16:33:28 45° W visible
22 Apr 5.1 11:57:21 10° NW 12:02:34 18° N 12:07:42 10° NE visible
22 Apr 4.2 13:48:55 10° NNW 13:55:57 34° NE 13:59:43 22° E visible
22 Apr 2.8 15:39:42 10° NW 15:46:55 73° W 15:46:55 73° W visible
22 Apr 4.7 17:32:42 10° WNW 17:34:06 13° WNW 17:34:06 13° WNW visible
23 Apr 5.2 11:08:57 10° NW 11:14:01 18° N 11:19:02 10° NE visible
23 Apr 4.6 13:01:20 10° NNW 13:07:46 26° NNE 13:13:14 12° ENE visible
23 Apr 2.9 14:52:05 10° NW 14:59:55 73° NE 15:00:26 71° E visible
23 Apr 4.2 16:43:49 10° NW 16:47:38 23° W 16:47:38 23° W visible
24 Apr 5.1 10:20:11 10° NW 10:25:27 19° N 10:30:43 10° NNE visible
24 Apr 4.9 12:13:36 10° NNW 12:19:25 22° NNE 12:25:05 10° ENE visible
24 Apr 3.5 14:04:33 10° NNW 14:12:09 51° NE 14:14:01 43° E visible
24 Apr 3.6 15:55:41 10° NW 16:01:14 39° W 16:01:14 39° W visible
25 Apr 5.0 11:25:38 10° NNW 11:30:57 19° N 11:36:10 10° NE visible
25 Apr 4.0 13:17:01 10° NNW 13:24:12 37° NE 13:27:40 25° E visible
25 Apr 3.0 15:07:51 10° NW 15:14:53 65° W 15:14:53 65° W visible
25 Apr 4.9 17:01:32 10° WNW 17:02:05 11° W 17:02:05 11° W visible
26 Apr 5.1 10:37:19 10° NW 10:42:24 18° N 10:47:26 10° NE visible
26 Apr 4.4 12:29:27 10° NNW 12:36:04 28° NNE 12:41:22 14° E visible
26 Apr 2.8 14:20:12 10° NW 14:28:02 82° NE 14:28:34 77° ESE visible
26 Apr 4.4 16:12:12 10° WNW 16:15:47 21° W 16:15:47 21° W visible
